Location: Bishausen
(51.6334°N, 9.9631°E)
Time: 09:44:41
(UTC+00:00)

Cosmos 1782 Rocket - Pass Details

Date: 23 May 2024
Orbit: 602 x 629 km, 82.5° (Epoch: 24 June)

Event Time Altitude Azimuth Distance (km) Brightness Sun altitude
Rises 01:49:57 0° 342° (NNW) 2,903 7.6 -10.3°
Reaches altitude 10° 01:52:21 10° 333° (NNW) 1,988 6.5 -10.1°
Maximum altitude 01:56:18 34° 270° (W) 1,026 4.4 -9.8°
Enters shadow 01:59:48 12° 208° (SSW) 1,817 5.3 -9.4°
